Time,TemperatureF,DewpointF,PressureIn,WindDirection,WindDirectionDegrees,WindSpeedMPH,WindSpeedGustMPH,Humidity,HourlyPrecipIn,Conditions,Clouds,dailyrainin,SoftwareType,DateUTC
2013-05-09 00:13:00,52.3,48.2,29.88,WSW,247,5.3,-999.0,86,-99.99,,,0.00,Acu-Link.com,2013-05-09 07:13:00,
2013-05-09 00:33:00,52.0,48.3,29.88,West,270,3.7,-999.0,87,-99.99,,,0.00,Acu-Link.com,2013-05-09 07:33:00,
2013-05-09 06:49:00,49.8,47.6,29.88,SW,225,0.0,-999.0,92,-99.99,,,0.00,Acu-Link.com,2013-05-09 13:49:00,
2013-05-09 07:04:00,50.4,47.9,29.89,South,180,0.0,-999.0,91,-99.99,,,0.00,Acu-Link.com,2013-05-09 14:04:00,
2013-05-09 07:19:00,50.9,48.1,29.89,WSW,247,4.2,-999.0,90,-99.99,,,0.00,Acu-Link.com,2013-05-09 14:19:00,
2013-05-09 07:35:00,51.4,48.3,29.89,SSW,202,2.7,-999.0,89,-99.99,,,0.00,Acu-Link.com,2013-05-09 14:35:00,
2013-05-09 07:50:00,51.8,48.4,29.90,SW,225,1.1,-999.0,88,-99.99,,,0.00,Acu-Link.com,2013-05-09 14:50:00,
2013-05-09 08:05:00,52.5,48.7,29.90,NNW,337,5.3,-999.0,87,-99.99,,,0.00,Acu-Link.com,2013-05-09 15:05:00,
2013-05-09 08:20:00,53.4,49.0,29.91,NW,315,2.7,-999.0,85,-99.99,,,0.00,Acu-Link.com,2013-05-09 15:20:00,
2013-05-09 08:36:00,54.1,49.1,29.91,West,270,2.2,-999.0,83,-99.99,,,0.00,Acu-Link.com,2013-05-09 15:36:00,
2013-05-09 08:51:00,55.6,49.2,29.91,NNE,22,3.7,-999.0,79,-99.99,,,0.00,Acu-Link.com,2013-05-09 15:51:00,
2013-05-09 09:06:00,56.5,49.4,29.91,NNE,22,4.7,-999.0,77,-99.99,,,0.00,Acu-Link.com,2013-05-09 16:06:00,
2013-05-09 09:21:00,57.9,49.7,29.91,WNW,292,3.2,-999.0,74,-99.99,,,0.00,Acu-Link.com,2013-05-09 16:21:00,
2013-05-09 09:36:00,58.1,49.9,29.91,West,270,2.7,-999.0,74,-99.99,,,0.00,Acu-Link.com,2013-05-09 16:36:00,
2013-05-09 09:52:00,62.2,50.7,29.91,NNW,337,1.7,-999.0,66,-99.99,,,0.00,Acu-Link.com,2013-05-09 16:52:00,
2013-05-09 10:07:00,59.2,49.8,29.91,NNW,337,3.2,-999.0,71,-99.99,,,0.00,Acu-Link.com,2013-05-09 17:07:00,
2013-05-09 10:22:00,60.1,49.5,29.91,NNE,22,3.2,-999.0,68,-99.99,,,0.00,Acu-Link.com,2013-05-09 17:22:00,
2013-05-09 10:38:00,62.2,50.3,29.90,ENE,67,1.7,-999.0,65,-99.99,,,0.00,Acu-Link.com,2013-05-09 17:38:00,
2013-05-09 10:53:00,63.5,51.1,29.90,NNE,22,5.8,-999.0,64,-99.99,,,0.00,Acu-Link.com,2013-05-09 17:53:00,
2013-05-09 11:08:00,64.8,51.9,29.91,NNE,22,1.7,-999.0,63,-99.99,,,0.00,Acu-Link.com,2013-05-09 18:08:00,
2013-05-09 11:23:00,64.6,51.7,29.90,NNW,337,4.2,-999.0,63,-99.99,,,0.00,Acu-Link.com,2013-05-09 18:23:00,
2013-05-09 11:38:00,66.9,52.6,29.90,North,0,2.7,-999.0,60,-99.99,,,0.00,Acu-Link.com,2013-05-09 18:38:00,
2013-05-09 11:54:00,65.7,52.3,29.90,NNE,22,4.2,-999.0,62,-99.99,,,0.00,Acu-Link.com,2013-05-09 18:54:00,
2013-05-09 12:09:00,68.5,52.2,29.89,South,180,1.7,-999.0,56,-99.99,,,0.00,Acu-Link.com,2013-05-09 19:09:00,
2013-05-09 12:24:00,67.6,51.8,29.89,West,270,5.3,-999.0,57,-99.99,,,0.00,Acu-Link.com,2013-05-09 19:24:00,
2013-05-09 12:39:00,68.7,51.9,29.90,West,270,4.7,-999.0,55,-99.99,,,0.00,Acu-Link.com,2013-05-09 19:39:00,
2013-05-09 12:54:00,67.3,51.5,29.89,SSW,202,3.2,-999.0,57,-99.99,,,0.00,Acu-Link.com,2013-05-09 19:54:00,
2013-05-09 13:10:00,68.0,51.7,29.89,SW,225,2.2,-999.0,56,-99.99,,,0.00,Acu-Link.com,2013-05-09 20:10:00,
2013-05-09 13:25:00,70.9,52.4,29.89,West,270,3.7,-999.0,52,-99.99,,,0.00,Acu-Link.com,2013-05-09 20:25:00,
2013-05-09 13:40:00,68.2,51.4,29.90,NW,315,2.7,-999.0,55,-99.99,,,0.00,Acu-Link.com,2013-05-09 20:40:00,
2013-05-09 13:55:00,68.4,51.6,29.89,WSW,247,3.7,-999.0,55,-99.99,,,0.00,Acu-Link.com,2013-05-09 20:55:00,
2013-05-09 14:10:00,68.5,51.7,29.89,SSW,202,5.3,-999.0,55,-99.99,,,0.00,Acu-Link.com,2013-05-09 21:10:00,
2013-05-09 14:26:00,67.1,50.4,29.89,NNW,337,8.9,-999.0,55,-99.99,,,0.00,Acu-Link.com,2013-05-09 21:26:00,
2013-05-09 14:41:00,66.9,51.2,29.88,South,180,3.7,-999.0,57,-99.99,,,0.00,Acu-Link.com,2013-05-09 21:41:00,
2013-05-09 14:56:00,66.6,51.4,29.88,NE,45,4.2,-999.0,58,-99.99,,,0.00,Acu-Link.com,2013-05-09 21:56:00,
2013-05-09 15:11:00,67.1,50.9,29.87,NW,315,7.8,-999.0,56,-99.99,,,0.00,Acu-Link.com,2013-05-09 22:11:00,
2013-05-09 15:27:00,66.6,50.9,29.87,NNW,337,7.3,-999.0,57,-99.99,,,0.00,Acu-Link.com,2013-05-09 22:27:00,
2013-05-09 15:42:00,66.7,51.0,29.86,SE,135,2.2,-999.0,57,-99.99,,,0.00,Acu-Link.com,2013-05-09 22:42:00,
2013-05-09 15:57:00,66.0,50.8,29.86,NNE,22,8.3,-999.0,58,-99.99,,,0.00,Acu-Link.com,2013-05-09 22:57:00,
2013-05-09 16:12:00,68.0,51.2,29.85,West,270,8.9,-999.0,55,-99.99,,,0.00,Acu-Link.com,2013-05-09 23:12:00,
2013-05-09 16:27:00,67.3,51.1,29.84,WNW,292,4.2,-999.0,56,-99.99,,,0.00,Acu-Link.com,2013-05-09 23:27:00,
2013-05-09 16:43:00,66.7,50.5,29.83,NNW,337,8.3,-999.0,56,-99.99,,,0.00,Acu-Link.com,2013-05-09 23:43:00,
2013-05-09 16:58:00,65.8,50.1,29.83,WNW,292,5.3,-999.0,57,-99.99,,,0.00,Acu-Link.com,2013-05-09 23:58:00,
2013-05-09 17:13:00,67.3,51.1,29.82,WNW,292,4.7,-999.0,56,-99.99,,,0.00,Acu-Link.com,2013-05-10 00:13:00,
2013-05-09 17:28:00,67.8,51.5,29.83,West,270,3.7,-999.0,56,-99.99,,,0.00,Acu-Link.com,2013-05-10 00:28:00,
2013-05-09 17:43:00,68.0,51.2,29.83,WSW,247,5.3,-999.0,55,-99.99,,,0.00,Acu-Link.com,2013-05-10 00:43:00,
2013-05-09 17:59:00,66.7,51.0,29.83,West,270,9.9,-999.0,57,-99.99,,,0.00,Acu-Link.com,2013-05-10 00:59:00,
2013-05-09 18:14:00,67.8,51.0,29.82,NNW,337,5.8,-999.0,55,-99.99,,,0.00,Acu-Link.com,2013-05-10 01:14:00,
2013-05-09 18:29:00,67.3,50.6,29.82,East,90,2.7,-999.0,55,-99.99,,,0.00,Acu-Link.com,2013-05-10 01:29:00,
2013-05-09 18:45:00,65.3,50.6,29.83,South,180,3.7,-999.0,59,-99.99,,,0.00,Acu-Link.com,2013-05-10 01:45:00,
2013-05-09 19:00:00,64.0,50.3,29.84,WNW,292,5.3,-999.0,61,-99.99,,,0.00,Acu-Link.com,2013-05-10 02:00:00,
2013-05-09 19:15:00,61.5,50.0,29.84,WSW,247,3.7,-999.0,66,-99.99,,,0.00,Acu-Link.com,2013-05-10 02:15:00,
2013-05-09 19:30:00,59.4,49.2,29.85,West,270,7.8,-999.0,69,-99.99,,,0.00,Acu-Link.com,2013-05-10 02:30:00,
2013-05-09 19:45:00,55.6,48.2,29.87,WNW,292,8.9,-999.0,76,-99.99,,,0.00,Acu-Link.com,2013-05-10 02:45:00,
2013-05-09 20:01:00,55.0,48.3,29.88,East,90,9.9,-999.0,78,-99.99,,,0.00,Acu-Link.com,2013-05-10 03:01:00,
2013-05-09 20:16:00,54.5,48.1,29.88,West,270,3.2,-999.0,79,-99.99,,,0.00,Acu-Link.com,2013-05-10 03:16:00,
2013-05-09 20:31:00,54.0,48.0,29.88,SSW,202,2.2,-999.0,80,-99.99,,,0.00,Acu-Link.com,2013-05-10 03:31:00,
2013-05-09 20:47:00,53.4,47.7,29.89,West,270,3.2,-999.0,81,-99.99,,,0.00,Acu-Link.com,2013-05-10 03:47:00,
2013-05-09 21:02:00,53.1,47.8,29.89,WNW,292,5.8,-999.0,82,-99.99,,,0.00,Acu-Link.com,2013-05-10 04:02:00,
2013-05-09 21:18:00,52.7,47.7,29.90,SW,225,1.7,-999.0,83,-99.99,,,0.00,Acu-Link.com,2013-05-10 04:18:00,
2013-05-09 21:33:00,52.3,47.6,29.89,West,270,2.2,-999.0,84,-99.99,,,0.00,Acu-Link.com,2013-05-10 04:33:00,
2013-05-09 21:49:00,52.2,47.5,29.90,West,270,2.2,-999.0,84,-99.99,,,0.00,Acu-Link.com,2013-05-10 04:49:00,
2013-05-09 22:04:00,52.0,47.6,29.90,North,0,2.7,-999.0,85,-99.99,,,0.00,Acu-Link.com,2013-05-10 05:04:00,
2013-05-09 22:19:00,52.0,47.6,29.91,WSW,247,6.3,-999.0,85,-99.99,,,0.00,Acu-Link.com,2013-05-10 05:19:00,
2013-05-09 22:35:00,51.8,47.7,29.91,West,270,3.7,-999.0,86,-99.99,,,0.00,Acu-Link.com,2013-05-10 05:35:00,
2013-05-09 22:50:00,51.4,47.7,29.91,WNW,292,2.7,-999.0,87,-99.99,,,0.00,Acu-Link.com,2013-05-10 05:50:00,
2013-05-09 23:05:00,51.3,47.9,29.91,SW,225,1.7,-999.0,88,-99.99,,,0.00,Acu-Link.com,2013-05-10 06:05:00,